Location: Arundel
(45.9667°N, 74.6189°W)
Time: 16:02:20
(UTC+00:00)

Tiangong - Visible Passes

Search period start: 27 November 2022 00:00
Search period end: 07 December 2022 00:00
Orbit: 386 x 393 km, 41.5° (Epoch: 27 November)

Date Brightness Start Highest point End Pass type
(mag) Time Alt. Az. Time Alt. Az. Time Alt. Az.
30 Nov -0.1 23:14:20 10° SSW 23:16:15 19° S 23:16:15 19° S visible
01 Dec 0.3 22:16:38 10° S 22:18:30 15° SSE 22:20:22 10° ESE visible
01 Dec 0.7 23:51:59 10° WSW 23:52:51 16° SW 23:52:51 16° SW visible
02 Dec -0.7 22:53:39 10° SW 22:56:25 27° SSE 22:57:02 25° SE visible
03 Dec -0.1 21:55:23 10° SSW 21:57:52 21° SSE 22:00:21 10° ESE visible
03 Dec -0.3 23:31:22 10° WSW 23:33:23 28° SW 23:33:23 28° SW visible
04 Dec -0.8 22:32:42 10° WSW 22:35:37 33° S 22:37:21 19° ESE visible
05 Dec 1.3 00:09:17 10° WSW 00:09:37 12° WSW 00:09:37 12° WSW visible
05 Dec -1.0 23:10:23 10° WSW 23:13:20 35° S 23:13:30 35° S visible
06 Dec -0.9 22:11:25 10° WSW 22:14:22 36° S 22:17:19 10° ESE visible
06 Dec 0.5 23:48:11 10° WSW 23:49:34 19° SW 23:49:34 19° SW visible
